STARLINK-32734, 62476

Orbit data source: Space-Track

STARLINK-32734, 62476 is a payload satellite owned by SpaceX/Seattle (US) in LEO that was launched on Tue, 31 Dec 2024 UTC via an FALCON 9 launch vehicle from the Air Force Eastern Test Range (AFETR). Payload-class satellites include a variety of spacecraft equipped with specific instruments for various scientific and technological missions. These include communications satellites like Starlink; space stations such as the ISS; scientific satellites like the Hubble; Earth observation satellites from companies like Planet Labs, Umbra, and HawkEye 360; GPS; miniature CubeSats for education and research; and military/defense satellites.

Loading next visibility...
Identifier
62476, 2024-254Q
Orbit
LEO
Country
Flag of USUS
Related business
Manufacturer
SpaceX/Seattle
Mission
Operational Commercial Communications
Bus & Motor
STARLINK V2M, Unknown motor
Mass
730 kg wet, ~700 kg dry
Launch date (UTC)
2024-12-31 (1 year ago)
Launch vehicle
FALCON 9
Launch site
Air Force Eastern Test Range (AFETR)
Object type
Payload
Rocket body
Debris
Shape & HBR
Box + 2 Pan, 17.7 m
Radar Cross Section
33.884 m², Large (>1 m²)

Expand to show TLE details & history
Last TLE update: 7 hours ago

TLE from 7 hours ago
0 STARLINK-32734
1 62476U 24254Q   26126.11436144  .00020283  00000-0  74444-3 0  9994
2 62476  42.9996  52.2143 0001887 256.4815 103.5827 15.27585351 76436
Epoch: 2026-05-06T02:44Z
TLE epoch observation values (Epoch: 2026-05-06T02:44:40.828Z)
Latitude
0.00002°
Longitude
147.06471°
Altitude
483.113 km
Speed
7.625 km/s
True Right ascension
03h 28m 51s
True Declination
0° 00' 00"
Sunlit
Object was in daylight at epoch
Visualization orbit readout
Latitude
Unknown
Longitude
Unknown
Altitude
Unknown
Speed
Unknown
Apparent Right ascension
Unknown
Apparent Declination
Unknown
Sunlit
N/A
Visualization observer readout
Local Sidereal Time
17:39:06
Azimuth
Unknown
Elevation
Unknown
Doppler factor
Unknown
Orbital elements
Apogee altitude
486.273 km
Perigee altitude
483.683 km
Semi-major axis
6,863.115 km
Eccentricity
0.00019
Inclination
42.9996°
RAAN
52.2143°
Arg. of periapsis
256.4815°
True anomaly
103.60372°
Mean anomaly
103.5827°
Eccentric anomaly
103.59321°
Mean motion
3.81734 °/min
Orbital period
94.31 mins
BSTAR
0.00074444
Loading maneuver chart data...
Computing Atmospheric mass density...
Loading historical data...
Loading historical data...
Loading historical data...
Loading historical data...
Loading historical data...
Loading historical data...
Loading historical data...

Documentation

Showing up to 5 results
|